Gypsum, CO

1:21 AM MDT on September 28, 2016 (GMT -0600)
Eagle County Regional

Weather History for KEGE - April, 2013

Change the Weather History Date:

Monday, April 8, 2013

  Actual Average Record
Temperature  
Mean Temperature 44 °F -  
Max Temperature 53 °F 56 °F 75 °F (1977)
Min Temperature 35 °F 22 °F -8 °F (1973)
Degree Days  
Heating Degree Days 21    
Moisture  
Dew Point 32 °F    
Average Humidity 76    
Maximum Humidity 100    
Minimum Humidity 33    
Precipitation  
Precipitation 0.02 in - - ()
Sea Level Pressure  
Sea Level Pressure 29.56 in    
Wind  
Wind Speed 4 mph (SE)    
Max Wind Speed 18 mph    
Max Gust Speed 32 mph    
Visibility 10 miles    
Events      
Averages and records for this station are not official NWS values.
T = Trace of Precipitation, MM = Missing Value Source: NWS Daily Summary

Daily Weather History Graph

Daily Weather History Graph

Search for Another Location

Airport or City:

Trip Planner

Search our weather history database for the weather conditions in past years. The results will help you decide how hot, cold, wet, or windy it might be!

Date:

Astronomy

Apr. 08, 2013 Rise Set
Actual Time 6:40 AM MDT 7:39 PM MDT
Civil Twilight 6:12 AM MDT 8:06 PM MDT
Nautical Twilight 5:40 AM MDT 8:39 PM MDT
Astronomical Twilight 5:06 AM MDT 9:13 PM MDT
Moon 5:31 AM MDT (4/8) 6:16 PM MDT (4/8)
Length of Visible Light 13h 53m
Length of Day
12h 58m
Waning Crescent, 3% of the Moon is Illuminated
Apr 8
Waning Crescent
Apr 10
New
Apr 18
First Quarter
Apr 25
Full
May 2
Last Quarter

Hourly Weather History & Observations

Time (MDT) Temp. Windchill Dew Point Humidity Pressure Visibility Wind Dir Wind Speed Gust Speed Precip Events Conditions
12:15 AM 35.6 °F 28.6 °F 30.2 °F 81% 29.76 in 10.0 mi ENE 9.2 mph - N/A   Clear
12:35 AM 35.6 °F 29.9 °F 30.2 °F 81% 29.75 in 10.0 mi ENE 6.9 mph - N/A   Partly Cloudy
12:55 AM 35.6 °F 29.9 °F 30.2 °F 81% 29.75 in 10.0 mi ESE 6.9 mph - N/A   Scattered Clouds
1:15 AM 37.4 °F - 30.2 °F 75% 29.74 in 10.0 mi Calm Calm - N/A   Mostly Cloudy
1:35 AM 37.4 °F - 30.2 °F 75% 29.74 in 10.0 mi Calm Calm - N/A   Mostly Cloudy
1:55 AM 37.4 °F 34.9 °F 30.2 °F 75% 29.73 in 10.0 mi South 3.5 mph - N/A   Mostly Cloudy
2:15 AM 35.6 °F - 30.2 °F 81% 29.73 in 10.0 mi Calm Calm - N/A   Mostly Cloudy
2:35 AM 35.6 °F 32.8 °F 30.2 °F 81% 29.72 in 10.0 mi NNW 3.5 mph - N/A   Partly Cloudy
2:55 AM 35.6 °F 29.2 °F 30.2 °F 81% 29.70 in 10.0 mi SSE 8.1 mph - N/A   Mostly Cloudy
3:55 AM 37.4 °F 32.1 °F 30.2 °F 75% 29.66 in 10.0 mi NNE 6.9 mph - N/A   Mostly Cloudy
4:15 AM 37.4 °F 34.9 °F 30.2 °F 75% 29.67 in 10.0 mi SSW 3.5 mph - N/A   Overcast
4:35 AM 37.4 °F 34.9 °F 32.0 °F 81% 29.66 in 10.0 mi SSW 3.5 mph - N/A   Overcast
4:55 AM 37.4 °F 33.8 °F 32.0 °F 81% 29.65 in 10.0 mi NNE 4.6 mph - N/A   Overcast
5:15 AM 35.6 °F - 32.0 °F 87% 29.65 in 10.0 mi Calm Calm - N/A   Mostly Cloudy
5:35 AM 37.4 °F 34.9 °F 32.0 °F 81% 29.64 in 10.0 mi SSE 3.5 mph - N/A   Clear
5:55 AM 35.6 °F - 30.2 °F 81% 29.63 in 10.0 mi Calm Calm - N/A   Clear
6:15 AM 35.6 °F - 30.2 °F 81% 29.63 in 10.0 mi Calm Calm - N/A   Clear
6:35 AM 35.6 °F - 30.2 °F 81% 29.63 in 10.0 mi Calm Calm - N/A   Scattered Clouds
6:50 AM 35.6 °F - 30.2 °F 81% 29.63 in 10.0 mi Calm Calm - N/A   Scattered Clouds
7:50 AM 35.6 °F - 30.2 °F 81% 29.62 in 10.0 mi Calm Calm - N/A   Mostly Cloudy
8:50 AM 37.4 °F - 32.0 °F 81% 29.61 in 10.0 mi Calm Calm - N/A   Mostly Cloudy
9:55 AM 39.2 °F - 32.0 °F 75% 29.58 in 10.0 mi Calm Calm - N/A   Mostly Cloudy
10:55 AM 41.0 °F 38.0 °F 32.0 °F 70% 29.55 in 10.0 mi West 4.6 mph - N/A   Mostly Cloudy
11:50 AM 46.4 °F - 33.8 °F 62% 29.51 in 10.0 mi Calm Calm - N/A   Overcast
12:50 PM 48.2 °F - 32.0 °F 54% 29.47 in 10.0 mi Calm Calm - N/A   Overcast
1:50 PM 50.0 °F - 32.0 °F 50% 29.43 in 10.0 mi West 5.8 mph - N/A   Overcast
2:50 PM 53.6 °F - 24.8 °F 33% 29.43 in 10.0 mi Calm Calm - N/A   Overcast
3:50 PM 51.8 °F - 26.6 °F 38% 29.45 in 10.0 mi SSW 17.3 mph 32.2 mph N/A   Overcast
4:50 PM 48.2 °F - 32.0 °F 54% 29.45 in 10.0 mi SSE 13.8 mph - N/A   Overcast
5:50 PM 48.2 °F - 32.0 °F 54% 29.42 in 10.0 mi Variable 5.8 mph - N/A   Overcast
6:50 PM 48.2 °F - 32.0 °F 54% 29.41 in 10.0 mi Calm Calm - N/A   Overcast
7:15 PM 46.4 °F 45.2 °F 32.0 °F 57% 29.41 in 10.0 mi East 3.5 mph - N/A   Overcast
7:35 PM 46.4 °F 44.3 °F 33.8 °F 62% 29.41 in 10.0 mi East 4.6 mph - N/A   Mostly Cloudy
7:55 PM 46.4 °F 45.2 °F 33.8 °F 62% 29.41 in 10.0 mi SE 3.5 mph - N/A   Mostly Cloudy
8:15 PM 46.4 °F 45.2 °F 33.8 °F 62% 29.41 in 10.0 mi WSW 3.5 mph - N/A   Mostly Cloudy
8:35 PM 44.6 °F 43.1 °F 33.8 °F 66% 29.40 in 10.0 mi SSE 3.5 mph - N/A   Overcast
8:55 PM 39.2 °F 29.8 °F 35.6 °F 87% 29.49 in 7.0 mi SSW 18.4 mph - 0.01 in   Overcast
9:15 PM 39.2 °F 37.0 °F 37.4 °F 93% 29.48 in 10.0 mi WNW 3.5 mph - 0.01 in   Mostly Cloudy
9:35 PM 39.2 °F - 37.4 °F 93% 29.47 in 10.0 mi Calm Calm - 0.01 in   Mostly Cloudy
9:55 PM 39.2 °F 34.2 °F 37.4 °F 93% 29.50 in 10.0 mi SSE 6.9 mph - 0.01 in   Mostly Cloudy
10:15 PM 39.2 °F 35.0 °F 37.4 °F 93% 29.50 in 10.0 mi South 5.8 mph - N/A   Overcast
10:35 PM 39.2 °F - 37.4 °F 93% 29.50 in 10.0 mi Calm Calm - N/A   Overcast
10:55 PM 39.2 °F 35.0 °F 37.4 °F 93% 29.48 in 10.0 mi East 5.8 mph - N/A   Overcast
11:15 PM 37.4 °F 33.8 °F 37.4 °F 100% 29.49 in 10.0 mi NE 4.6 mph - N/A   Mostly Cloudy
11:35 PM 37.4 °F 34.9 °F 37.4 °F 100% 29.48 in 10.0 mi ENE 3.5 mph - N/A   Overcast
11:55 PM 37.4 °F 34.9 °F 37.4 °F 100% 29.48 in 10.0 mi SE 3.5 mph - N/A   Mostly Cloudy